Snowfall_Accumulation
0.0 0.0 0.0 0.0 0.0 0.0 0.0 0.0 0.0 0.0 0.0 0.0 0.0 0.0 0.0 0.0 0.0 0.0 0.0 0.0 0.0 0.0 0.0 0.0 0.0 0.0 0.0 0.0 0.0 0.0 0.0 0.0 0.0 0.0 0.0 0.0 0.0 0.0 0.0 0.0 0.0 0.0 0.0 0.0
0.0 0.0 0.0 0.0 0.0 0.0 0.0 0.0 0.0 0.0 0.0 0.0 0.0 0.0 0.0 0.0 0.0 0.0 0.0 0.0 0.0 0.0 0.0 0.0 0.0 0.0 0.0 0.0 0.0 0.0 0.0 0.0 0.0 0.0 0.0 0.0 0.0 0.0 0.0 0.0 0.0 0.0 0.0 0.0
0.0 0.0 0.0 0.0 0.0 0.0 0.0 0.0 0.0 0.0 0.0 0.0 0.0 0.0 0.0 0.0 0.0 0.0 0.0 0.0 0.0 0.0 0.0 0.0 0.0 0.0 0.0 0.0 0.0 0.0 0.0 0.0 0.0 0.0 0.0 0.0 0.0 0.0 0.0 0.0 0.0 0.0 0.0 0.0
0.0 0.0 0.0 0.0 0.0 0.0 0.1 0.0 0.0 0.0 0.0 0.2 0.0 0.5 0.0 0.0 0.0 0.0 0.0 0.0 0.0 0.0 0.0 0.0 0.0 0.0 0.0 0.0 0.0 0.0 0.0 0.0 0.0 0.0 0.0 0.0 0.0 0.0 0.0 0.0 0.0 0.0 0.0 0.0
0.0 0.0 0.0 0.0 0.0 0.0 0.0 0.0 0.0 0.0 0.0 0.0 0.0 0.4 0.0 0.0 0.0 0.0 0.0 0.0 0.0 0.0 0.0 0.0 0.0 0.0 0.0 0.0 0.0 0.0 0.0 0.0 0.0 0.0 0.0 0.0 0.0 0.0 0.0 0.0 0.0 0.0 0.0 0.0
0.0 0.0 0.0 0.0 0.0 0.0 0.0 0.0 0.0 0.0 0.0 2.3 0.0 0.0 0.0 0.0 0.0 0.0 0.0 0.0 0.0 0.0 0.0 0.0 0.0 0.0 0.0 0.0 0.0 0.0 0.0 0.0 0.0 0.0 0.0 0.0 0.0 0.0 0.0 0.0 0.0 0.0 0.0 0.0
0.0 0.0 0.0 0.0 0.0 0.0 0.0 0.1 2.4 1.7 1.7 0.0 0.0 0.0 0.0 0.1 0.0 0.0 0.0 0.0 0.0 0.0 0.0 0.0 0.0 0.0 0.0 0.0 0.0 0.0 0.0 0.0 0.0 0.0 0.0 0.0 0.0 0.0 0.0 0.0 0.0 0.0 0.0 0.0
0.2 0.2 0.0 0.0 0.0 0.0 0.0 0.0 1.1 2.2 0.9 0.4 0.0 1.0 0.1 0.0 0.0 0.0 0.0 0.0 0.0 1.5 1.0 0.5 0.1 0.0 0.0 0.0 0.0 0.0 0.0 0.0 0.0 0.0 0.0 0.0 0.0 0.0 0.0 0.0 0.0 0.0 0.0 0.0
0.0 0.0 0.0 0.0 0.0 0.0 0.0 0.8 0.0 1.2 0.9 3.0 0.2 0.0 0.1 0.4 2.6 0.0 2.3 0.0 0.0 0.0 0.0 1.9 0.9 0.6 0.3 0.0 0.0 0.0 0.0 0.0 0.0 0.0 0.0 0.0 0.0 0.0 0.0 0.0 0.0 0.0 0.0 0.0
0.0 0.1 0.0 0.0 0.0 0.0 0.0 0.0 2.6 3.0 8.5 2.8 0.1 0.3 3.0 3.2 5.8 2.8 4.0 4.1 3.4 1.3 1.6 0.0 0.8 0.4 0.0 0.0 0.0 0.0 0.0 0.0 0.0 0.0 0.0 0.0 0.0 0.0 0.0 0.0 0.0 0.0 0.0 0.0
0.0 0.0 0.0 0.0 0.0 0.0 0.0 0.4 0.4 0.7 1.1 3.9 1.8 4.8 2.6 4.2 0.0 0.0 1.4 1.0 1.2 1.1 0.6 0.5 0.5 0.2 0.0 0.0 0.0 0.1 0.1 0.0 0.0 0.0 0.0 0.0 0.0 0.0 0.0 0.0 0.0 0.0 0.0 0.0
0.0 0.1 0.4 0.0 0.0 0.0 0.0 0.0 0.0 7.7 7.3 4.1 3.4 3.6 0.0 0.0 0.0 0.0 0.0 0.0 0.0 0.0 0.0 0.2 0.1 0.0 0.0 0.0 0.0 0.0 0.0 0.0 0.0 0.0 0.0 0.0 0.0 0.0 0.0 0.0 0.0 0.0 0.0 0.0
0.0 1.3 2.6 0.7 0.0 0.0 0.1 0.0 0.0 0.2 1.6 4.6 7.3 1.4 0.0 0.0 0.0 0.0 0.0 0.0 0.0 0.0 0.0 0.0 0.0 0.0 0.0 0.0 0.0 0.0 0.0 0.0 0.0 0.0 0.0 0.0 0.0 0.0 0.0 0.0 0.0 0.0 0.0 0.0
0.0 0.9 2.8 4.0 0.9 0.3 0.3 0.0 0.0 2.0 9.9 4.7 2.3 0.0 0.1 0.0 0.0 0.0 0.0 0.0 0.0 0.0 0.0 0.0 0.0 0.0 0.0 0.0 0.0 0.0 0.0 0.0 0.0 0.0 0.0 0.0 0.0 0.0 0.0 0.0 0.0 0.0 0.0 0.0
0.6 5.4 3.4 1.8 1.0 0.5 0.3 0.3 0.0 0.4 0.2 5.6 0.8 0.8 0.0 0.0 0.0 0.0 0.4 0.3 0.1 0.0 0.0 0.0 0.0 0.0 0.0 0.0 0.0 0.0 0.0 0.0 0.0 0.0 0.0 0.0 0.0 0.0 0.0 0.0 0.0 0.0 0.0 0.0
0.0 3.9 3.6 2.9 1.2 1.6 0.9 0.1 0.1 0.3 0.6 1.4 1.3 0.9 0.0 0.0 0.0 0.9 0.8 0.5 0.4 0.0 0.0 0.0 0.0 0.0 0.0 0.0 0.1 0.1 0.1 0.1 0.0 0.1 0.0 0.0 0.0 0.0 0.0 0.0 0.0 0.0 0.0 0.0
2.3 4.5 4.8 2.9 1.0 2.4 3.4 0.1 0.2 0.1 0.4 0.6 2.2 0.2 0.0 1.3 1.1 1.0 0.7 0.6 0.5 0.2 0.1 0.0 0.3 0.1 0.2 0.4 0.4 0.5 0.5 0.2 0.0 0.3 0.2 0.2 0.9 0.0 0.7 0.7 0.0 0.1 0.2 0.0
2.3 3.3 6.7 7.0 1.1 12.6 0.3 0.0 1.1 0.4 1.1 0.9 0.8 0.3 0.2 0.5 1.0 1.0 0.9 1.0 0.9 1.3 1.7 1.3 1.3 1.1 1.1 0.6 0.7 0.5 1.1 0.6 1.4 0.8 1.0 1.0 0.8 1.5 2.0 2.0 1.3 1.1 0.6 0.7
0.0 1.6 10.7 12.5 7.5 0.1 0.0 1.7 5.0 6.1 4.7 2.8 2.3 1.4 1.3 1.2 0.9 3.1 2.1 1.6 2.6 3.2 3.6 6.2 1.9 1.8 2.3 1.8 1.7 1.9 2.2 2.1 1.0 2.7 2.2 2.0 1.9 1.4 1.2 1.0 0.8 0.8 0.9 0.9
0.0 0.2 6.8 7.9 14.8 9.0 5.4 0.9 0.0 3.2 7.5 2.1 2.8 2.5 2.0 2.4 3.8 3.8 2.1 3.4 4.6 4.7 4.2 3.7 6.6 6.1 4.5 4.8 3.2 2.9 2.8 4.1 5.4 5.1 4.9 2.0 1.2 1.5 2.9 2.4 3.8 4.8 2.2 2.9
3.5 6.8 10.2 7.2 10.0 5.1 3.0 1.4 1.6 8.6 7.9 2.3 3.8 4.2 3.0 5.5 4.0 6.1 6.3 7.3 7.9 4.6 4.0 3.7 3.0 4.9 7.3 6.0 6.3 6.2 5.5 6.8 6.0 5.3 4.4 3.7 4.0 5.6 6.0 6.0 6.4 9.5 11.0 8.5
4.1 6.2 7.6 9.2 17.0 13.0 0.3 1.2 5.5 5.6 3.3 2.9 4.3 4.4 4.8 4.2 4.0 6.5 7.6 10.2 9.5 6.5 2.9 2.1 3.0 2.8 1.5 1.0 1.1 5.1 8.6 8.5 7.4 5.5 4.9 5.7 5.5 5.8 6.6 6.8 8.4 8.4 9.7 13.1
14.4 9.2 11.7 7.8 9.1 3.3 1.6 3.0 3.1 2.8 3.0 3.7 3.6 3.9 3.6 3.8 8.6 9.3 10.1 11.1 11.8 7.3 1.8 1.0 0.9 0.4 0.3 0.2 0.0 0.7 2.7 3.9 5.2 5.7 6.7 6.3 6.2 6.4 5.9 6.3 7.1 7.7 8.7 8.5
0.6 1.2 6.7 3.8 3.6 2.4 2.5 1.8 1.5 2.1 2.5 2.7 2.1 3.1 7.0 10.7 11.6 12.6 13.2 10.9 9.1 6.2 1.5 0.5 0.1 0.1 0.4 0.5 0.6 0.1 1.2 1.2 1.0 1.2 1.4 2.6 3.2 3.5 3.6 3.7 4.0 4.4 5.8 6.9
0.3 0.8 2.4 4.6 3.8 2.4 2.0 2.5 1.9 2.6 2.2 2.6 2.6 1.8 3.5 4.9 6.1 3.9 4.4 5.3 5.8 5.7 3.5 1.2 0.7 0.6 1.1 0.6 0.4 1.0 1.0 0.7 0.9 0.6 0.8 1.0 1.3 1.6 2.0 2.4 2.4 2.3 3.7 3.1
1.5 6.3 5.9 6.0 2.2 3.8 5.6 3.6 2.2 2.5 4.2 3.1 1.0 0.8 0.9 1.8 3.2 3.5 3.4 2.7 2.6 3.1 2.9 1.9 2.0 1.3 1.0 0.1 1.2 1.8 1.2 0.2 0.1 0.1 0.7 0.2 0.7 0.5 0.8 1.0 1.8 1.8 2.0 1.8